• în Republica Moldova
  • Lista ţărilor
  • Pe 7 zile
  • Temperatura apei
  • Hartă satelitară
  • Meteo pe hartă
  • Widget-uri
  • user-avatar
    Intrare

    Meteo pe oră la Eisenstadt

    Astăzi, 22 Ianuarie, Duminică

    Timp Temperatura Precipitaţii Vânt Presiune Umiditate
    00:00 -10°C° 0 mm 2 m/s 732 mmHg 82%
    01:00 -10°C° 0 mm 2 m/s 732 mmHg 81%
    02:00 -10°C° 0 mm 2 m/s 732 mmHg 81%
    03:00 -10°C° 0 mm 2 m/s 732 mmHg 82%
    04:00 -10°C° 0 mm 2 m/s 732 mmHg 82%
    05:00 -10°C° 0 mm 2 m/s 732 mmHg 82%
    06:00 -10°C° 0 mm 2 m/s 732 mmHg 82%
    07:00 -10°C° 0 mm 2 m/s 732 mmHg 82%
    08:00 -9°C° 0 mm 3 m/s 732 mmHg 80%
    09:00 -8°C° 0 mm 3 m/s 732 mmHg 78%
    10:00 -7°C° 0 mm 3 m/s 732 mmHg 77%
    11:00 -6°C° 0 mm 3 m/s 732 mmHg 75%
    12:00 -5°C° 0 mm 3 m/s 732 mmHg 74%
    13:00 -4°C° 0 mm 3 m/s 732 mmHg 73%
    14:00 -5°C° 0 mm 3 m/s 731 mmHg 76%
    15:00 -5°C° 0 mm 3 m/s 731 mmHg 79%
    16:00 -6°C° 0 mm 3 m/s 731 mmHg 82%
    17:00 -7°C° 0 mm 3 m/s 731 mmHg 84%
    18:00 -8°C° 0 mm 3 m/s 730 mmHg 85%
    19:00 -9°C° 0 mm 3 m/s 730 mmHg 86%
    20:00 -9°C° 0 mm 3 m/s 730 mmHg 86%
    21:00 -9°C° 0 mm 3 m/s 730 mmHg 86%
    22:00 -9°C° 0 mm 3 m/s 730 mmHg 86%
    23:00 -9°C° 0 mm 3 m/s 730 mmHg 87%

    Mâine, 23 Ianuarie, Luni

    Timp Temperatura Precipitaţii Vânt Presiune Umiditate
    00:00 -10°C° 0 mm 3 m/s 730 mmHg 88%
    01:00 -10°C° 0 mm 3 m/s 730 mmHg 88%
    02:00 -10°C° 0 mm 3 m/s 729 mmHg 89%
    03:00 -12°C° 0 mm 3 m/s 729 mmHg 90%
    04:00 -12°C° 0 mm 3 m/s 728 mmHg 91%
    05:00 -12°C° 0 mm 3 m/s 728 mmHg 92%
    06:00 -13°C° 0 mm 3 m/s 728 mmHg 92%
    07:00 -12°C° 0 mm 2 m/s 728 mmHg 93%
    08:00 -10°C° 0 mm 2 m/s 728 mmHg 91%
    09:00 -8°C° 0 mm 2 m/s 728 mmHg 88%
    10:00 -7°C° 0 mm 2 m/s 728 mmHg 86%
    11:00 -6°C° 0 mm 2 m/s 728 mmHg 84%
    12:00 -5°C° 0 mm 2 m/s 728 mmHg 83%
    13:00 -4°C° 0 mm 2 m/s 727 mmHg 81%
    14:00 -5°C° 0 mm 2 m/s 727 mmHg 84%
    15:00 -6°C° 0 mm 2 m/s 726 mmHg 86%
    16:00 -7°C° 0 mm 1 m/s 726 mmHg 89%
    17:00 -8°C° 0 mm 1 m/s 726 mmHg 91%
    18:00 -9°C° 0 mm 1 m/s 726 mmHg 93%
    19:00 -11°C° 0 mm 1 m/s 726 mmHg 95%
    20:00 -11°C° 0 mm 1 m/s 725 mmHg 96%
    21:00 -11°C° 0 mm 1 m/s 725 mmHg 97%
    22:00 -12°C° 0 mm 0 m/s 725 mmHg 97%
    23:00 -12°C° 0 mm 0 m/s 725 mmHg 97%

    Poimâine, 24 Ianuarie, Marţi

    Timp Temperatura Precipitaţii Vânt Presiune Umiditate
    00:00 -11°C° 0 mm 1 m/s 725 mmHg 97%
    01:00 -11°C° 0 mm 1 m/s 725 mmHg 97%
    02:00 -11°C° 0 mm 1 m/s 725 mmHg 97%
    03:00 -12°C° 0 mm 1 m/s 725 mmHg 97%
    04:00 -12°C° 0 mm 1 m/s 725 mmHg 97%
    05:00 -11°C° 0 mm 1 m/s 725 mmHg 97%
    06:00 -12°C° 0 mm 2 m/s 725 mmHg 96%
    07:00 -12°C° 0 mm 2 m/s 726 mmHg 96%
    08:00 -9°C° 0 mm 2 m/s 726 mmHg 93%
    09:00 -8°C° 0 mm 2 m/s 727 mmHg 91%
    10:00 -7°C° 0 mm 2 m/s 727 mmHg 88%
    11:00 -6°C° 0 mm 2 m/s 727 mmHg 86%
    12:00 -5°C° 0 mm 2 m/s 727 mmHg 83%
    13:00 -4°C° 0 mm 2 m/s 727 mmHg 81%
    14:00 -5°C° 0 mm 2 m/s 727 mmHg 82%
    15:00 -6°C° 0 mm 2 m/s 727 mmHg 84%
    16:00 -7°C° 0 mm 2 m/s 727 mmHg 86%
    17:00 -7°C° 0 mm 2 m/s 727 mmHg 87%
    18:00 -8°C° 0 mm 2 m/s 727 mmHg 89%
    19:00 -10°C° 0 mm 3 m/s 727 mmHg 91%
    20:00 -10°C° 0 mm 3 m/s 728 mmHg 90%
    21:00 -10°C° 0 mm 3 m/s 728 mmHg 90%
    22:00 -10°C° 0 mm 3 m/s 728 mmHg 90%
    23:00 -10°C° 0 mm 3 m/s 728 mmHg 90%

    25 Ianuarie, Miercuri

    Timp Temperatura Precipitaţii Vânt Presiune Umiditate
    00:00 -10°C° 0 mm 3 m/s 728 mmHg 90%
    01:00 -10°C° 0 mm 3 m/s 729 mmHg 90%
    02:00 -10°C° 0 mm 3 m/s 729 mmHg 91%
    03:00 -10°C° 0 mm 3 m/s 729 mmHg 91%
    04:00 -10°C° 0 mm 3 m/s 729 mmHg 91%
    05:00 -10°C° 0 mm 3 m/s 729 mmHg 92%
    06:00 -10°C° 0 mm 3 m/s 729 mmHg 93%
    07:00 -9°C° 0 mm 2 m/s 730 mmHg 93%
    08:00 -8°C° 0 mm 2 m/s 730 mmHg 91%
    09:00 -7°C° 0 mm 2 m/s 730 mmHg 88%
    10:00 -5°C° 0 mm 2 m/s 731 mmHg 86%
    11:00 -5°C° 0 mm 2 m/s 731 mmHg 84%
    12:00 -4°C° 0 mm 2 m/s 731 mmHg 83%
    13:00 -3°C° 0 mm 2 m/s 731 mmHg 82%
    14:00 -4°C° 0 mm 2 m/s 731 mmHg 84%
    15:00 -5°C° 0 mm 2 m/s 731 mmHg 86%
    16:00 -4°C° 0 mm 1 m/s 731 mmHg 89%
    17:00 -6°C° 0 mm 1 m/s 731 mmHg 91%
    18:00 -7°C° 0 mm 1 m/s 731 mmHg 93%
    19:00 -8°C° 0 mm 1 m/s 731 mmHg 95%
    20:00 -9°C° 0 mm 1 m/s 731 mmHg 95%
    21:00 -10°C° 0 mm 1 m/s 732 mmHg 96%
    22:00 -10°C° 0 mm 0 m/s 732 mmHg 96%
    23:00 -10°C° 0 mm 0 m/s 732 mmHg 96%

    26 Ianuarie, Joi

    Timp Temperatura Precipitaţii Vânt Presiune Umiditate
    00:00 -10°C° 0 mm 0 m/s 732 mmHg 96%
    01:00 -10°C° 0 mm 0 m/s 732 mmHg 96%
    02:00 -10°C° 0 mm 0 m/s 732 mmHg 96%
    03:00 -10°C° 0 mm 1 m/s 732 mmHg 95%
    04:00 -10°C° 0 mm 1 m/s 732 mmHg 95%
    05:00 -10°C° 0 mm 1 m/s 732 mmHg 95%
    06:00 -9°C° 0 mm 1 m/s 732 mmHg 94%
    07:00 -9°C° 0 mm 1 m/s 732 mmHg 93%
    08:00 -7°C° 0 mm 1 m/s 733 mmHg 91%
    09:00 -4°C° 0 mm 1 m/s 733 mmHg 88%
    10:00 -4°C° 0 mm 2 m/s 734 mmHg 85%
    11:00 -3°C° 0 mm 2 m/s 734 mmHg 83%
    12:00 -2°C° 0 mm 2 m/s 734 mmHg 81%
    13:00 -1°C° 0 mm 2 m/s 734 mmHg 79%
    14:00 -2°C° 0 mm 2 m/s 733 mmHg 82%
    15:00 -3°C° 0 mm 2 m/s 733 mmHg 85%
    16:00 -4°C° 0 mm 2 m/s 733 mmHg 88%
    17:00 -5°C° 0 mm 2 m/s 733 mmHg 89%
    18:00 -6°C° 0 mm 2 m/s 733 mmHg 90%
    19:00 -7°C° 0 mm 2 m/s 733 mmHg 91%
    20:00 -7°C° 0 mm 2 m/s 733 mmHg 90%
    21:00 -7°C° 0 mm 2 m/s 734 mmHg 90%
    22:00 -8°C° 0 mm 2 m/s 734 mmHg 89%
    23:00 -8°C° 0 mm 2 m/s 734 mmHg 89%

    27 Ianuarie, Vineri

    Timp Temperatura Precipitaţii Vânt Presiune Umiditate
    00:00 -8°C° 0 mm 2 m/s 734 mmHg 89%
    01:00 -8°C° 0 mm 2 m/s 733 mmHg 89%
    02:00 -8°C° 0 mm 2 m/s 733 mmHg 89%
    03:00 -8°C° 0 mm 2 m/s 733 mmHg 89%
    04:00 -8°C° 0 mm 2 m/s 733 mmHg 90%
    05:00 -9°C° 0 mm 2 m/s 733 mmHg 90%
    06:00 -9°C° 0 mm 2 m/s 733 mmHg 90%
    07:00 -9°C° 0 mm 2 m/s 733 mmHg 91%
    08:00 -8°C° 0 mm 2 m/s 733 mmHg 88%
    09:00 -7°C° 0 mm 3 m/s 734 mmHg 86%
    10:00 -6°C° 0 mm 3 m/s 734 mmHg 84%
    11:00 -5°C° 0 mm 3 m/s 734 mmHg 83%
    12:00 -4°C° 0 mm 3 m/s 734 mmHg 82%
    13:00 -2°C° 0 mm 3 m/s 733 mmHg 81%
    14:00 -4°C° 0 mm 3 m/s 733 mmHg 84%
    15:00 -4°C° 0 mm 2 m/s 733 mmHg 86%
    16:00 -4°C° 0 mm 2 m/s 732 mmHg 89%
    17:00 -6°C° 0 mm 2 m/s 732 mmHg 91%
    18:00 -8°C° 0 mm 2 m/s 732 mmHg 93%
    19:00 -9°C° 0 mm 2 m/s 732 mmHg 95%
    20:00 -8°C° 0 mm 1 m/s 732 mmHg 95%
    21:00 -9°C° 0 mm 1 m/s 732 mmHg 96%
    22:00 -9°C° 0 mm 1 m/s 732 mmHg 96%
    23:00 -9°C° 0 mm 1 m/s 732 mmHg 96%
    Arată mai mult